Location: Balaclava NSW 2575, Australia
(34.4510°S, 150.4953°E)
Time: 18:49:39
(UTC+10:00)

Vanguard 2 - Pass Details

Date: 18 June 2021
Orbit: 552 x 2937 km, 32.9° (Epoch: 24 July)

Event Time Altitude Azimuth Distance (km) Brightness Sun altitude
Rises 05:55:57 0° 302° (WNW) 3,645 - -13.6°
Exits shadow 05:56:12 - 302° (WNW) 3,559 10.6 -13.5°
Reaches altitude 10° 05:58:08 10° 305° (NW) 2,924 10.2 -13.2°
Maximum altitude 06:05:22 60° 24° (NNE) 1,708 9.5 -11.8°
Drops below altitude 10° 06:17:39 10° 99° (E) 4,812 12.6 -9.4°
Sets 06:22:18 0° 101° (E) 6,153 13.2 -8.5°
